#timestamp,LO_Frequency,Hit,StdDev 
1569574815.5,286046999.2,N
1569574835.3,286046996.9,N
1569574855.1,286046997.3,N
1569574875.9,286046995.0,N
1569574895.7,286046994.9,N
1569574915.5,286046994.9,N
1569574935.4,286046996.1,N
1569574955.2,286046998.0,N
1569574975.1,286046997.3,N
1569574976.0,286046997.3,N
1569574995.8,286046997.5,N
1569575015.6,286046998.0,N
1569575035.5,286046997.5,N
1569575055.3,286046998.9,N
1569575075.2,286047000.5,N
1569575095.9,286046998.6,N
1569575115.7,286046999.6,N
1569575135.6,286046999.4,N
1569575155.4,286046999.4,N
1569575175.2,286046998.5,N
1569575195.1,286046998.5,N
1569575196.0,286046998.5,N
1569575215.8,286047001.2,N
1569575235.7,286047000.5,N
1569575255.5,286047002.8,N
1569575275.3,286046999.8,N
1569575295.2,286047001.0,N
1569575315.0,286047000.0,N
1569575315.9,286047000.0,N
1569575335.8,286046999.7,N
1569575355.6,286046998.6,N
1569575375.4,286047001.2,N
1569575395.3,286046999.3,N
1569575415.1,286046997.3,N
1569575435.9,286046996.5,N
1569575455.7,286046998.1,N
1569575475.5,286047000.2,N
1569575495.4,286047000.1,N
1569575515.2,286047000.3,N
1569575535.0,286047000.4,N
1569575535.9,286047000.4,N
1569575555.8,286046998.4,N
1569575575.6,286046997.2,N
1569575595.5,286046999.3,N
1569575615.3,286046998.1,N
1569575635.1,286047000.9,N
1569575655.9,286047000.0,N
1569575675.7,286046998.7,N
1569575695.6,286046998.9,N
1569575715.4,286047001.0,N
1569575735.2,286046998.7,N
1569575755.1,286046998.3,N
1569575756.0,286046998.3,N
1569575775.8,286046998.1,N
1569575795.6,286046998.4,N
1569575815.5,286046998.5,N
1569575835.3,286047001.0,N
1569575855.2,286046999.2,N
1569575875.9,286046999.2,N
1569575895.7,286046996.7,N
1569575915.6,286046999.6,N
1569575935.4,286046996.9,N
1569575955.3,286046996.6,N
1569575975.1,286046999.1,N
1569575976.0,286046999.1,N
1569575995.8,286047001.2,N
1569576015.7,286046999.9,N
1569576035.5,286047002.5,N
1569576055.3,286047002.0,N
1569576075.2,286047000.4,N
1569576095.0,286046999.7,N
1569576095.9,286046999.7,N
1569576115.8,286047000.2,N
1569576135.6,286047001.2,N
1569576155.4,286047000.4,N
1569576175.3,286046999.8,N
1569576195.1,286047001.0,N
1569576215.9,286046999.9,N
1569576235.7,286047000.3,N
1569576255.5,286047000.3,N
1569576275.4,286047000.6,N
1569576295.2,286046998.6,N
1569576315.0,286047011.9,Y
1569576315.9,286046998.2,P
1569576335.8,286047000.7,N
1569576355.6,286046999.8,N
1569576375.5,286047000.1,N
1569576395.3,286047000.8,N
1569576415.1,286047000.3,N
1569576435.9,286047002.1,N
1569576455.7,286047001.7,N
1569576475.6,286047003.5,Y
1569576495.4,286047001.4,P
1569576515.2,286047005.6,P
1569576535.1,286047003.5,N
1569576536.0,286047003.5,N
1569576555.8,286047001.3,N
1569576575.6,286047004.3,N
1569576595.5,286047002.1,N
1569576615.3,286047004.3,N
1569576635.2,286047004.0,N
1569576655.9,286047001.9,N
1569576675.7,286047004.3,N
1569576695.6,286047001.4,N
1569576715.4,286047002.8,N
1569576735.2,286047002.0,N
1569576755.1,286047004.1,N
1569576756.0,286047004.1,N
1569576775.8,286047003.6,N
1569576795.7,286047002.9,N
1569576815.5,286047004.8,Y
1569576835.3,286047002.7,P
1569576855.2,286047002.3,P
1569576875.0,286046999.9,N
1569576875.9,286046999.9,N
1569576895.8,286047000.2,N
1569576915.6,286047002.0,N
1569576935.4,286047002.8,N
1569576955.3,286047000.6,N
1569576975.1,286047000.6,N
1569576995.9,286047000.5,N
1569577015.7,286047001.1,N
1569577035.5,286047000.4,N
1569577055.4,286047000.5,N
1569577075.2,286047000.6,N
1569577095.0,286047002.4,N
1569577095.9,286047002.4,N
1569577115.8,286047000.9,N
1569577135.6,286046998.7,N
1569577155.5,286047001.1,N
1569577175.3,286046998.6,N
1569577195.1,286046999.0,N
1569577215.9,286046998.3,N
1569577235.7,286046999.0,N
1569577255.6,286046998.9,N
1569577275.4,286046997.7,N
1569577295.2,286046997.5,N
1569577315.1,286046997.5,N
1569577316.0,286046997.5,N
1569577335.8,286046997.3,N
1569577385.7,286046998.0,E
1569577395.6,286046997.4,N
1569577415.4,286046998.3,P
1569577435.3,286046998.7,N
1569577455.1,286046996.6,Y
1569577475.8,286046998.4,P
1569577495.7,286047000.9,P
1569577515.5,286047001.1,N
1569577535.4,286046998.2,N
1569577555.2,286047000.7,N
1569577575.0,286046998.2,N
1569577575.9,286046998.2,N
1569577595.8,286046999.2,N
1569577615.8,286046999.1,N
1569577635.6,286046996.7,N
1569577655.5,286046998.9,N
1569577675.3,286047000.8,N
1569577695.1,286047000.7,N
1569577715.9,286046999.1,N
1569577735.7,286046999.2,N
1569577755.5,286046997.9,N
1569577775.4,286046996.0,Y
1569577795.2,286046996.1,P
1569577815.1,286046996.1,N
1569577816.0,286046996.1,N
1569577835.8,286046995.4,Y
1569577855.6,286047000.9,P
1569577875.5,286047000.6,N
1569577895.3,286047000.1,N
1569577915.2,286047002.1,N
1569577935.0,286047002.6,N
1569577935.9,286047002.6,N
1569577955.7,286047000.2,N
1569577975.6,286047002.4,N
1569577995.4,286047002.2,N
1569578015.3,286047000.4,N
1569578035.1,286047001.0,N
1569578036.0,286047001.0,N
1569578055.8,286047001.1,N
1569578075.7,286046998.3,N
1569578095.5,286046998.6,N
1569578115.4,286047000.0,N
1569578135.2,286047001.5,N
1569578155.0,286047003.8,N
1569578155.9,286047003.8,N
1569578175.8,286047003.0,N
1569578195.6,286047001.4,N
1569578215.4,286047001.3,N
1569578235.3,286047002.9,N
1569578255.1,286047004.3,N
1569578275.9,286047004.2,N
1569578295.7,286047005.9,Y
1569578315.5,286047001.8,P
1569578335.4,286047001.4,P
1569578355.2,286047002.7,P
1569578375.1,286047002.1,Y
1569578376.0,286047002.1,P
1569578395.8,286046998.6,P
